Location: Newark
(51.0500°N, 12.4500°E)
Time: 15:18:58
(UTC+00:00)

Vanguard 1 - Pass Details

Date: 24 February 2020
Orbit: 649 x 3834 km, 34.2° (Epoch: 30 March)

Event Time Altitude Azimuth Distance (km) Brightness Sun altitude
Rises 11:24:12 0° 268° (W) 7,201 14.5 29.4°
Reaches altitude 10° 11:30:33 10° 259° (W) 5,671 14.2 29.4°
Maximum altitude 11:42:18 27° 211° (SSW) 3,286 14.3 29.3°
Drops below altitude 10° 11:49:52 10° 158° (SSE) 3,550 14.0 29.1°
Sets 11:52:48 0° 145° (SE) 4,167 13.9 29.1°
